Time,TemperatureF,DewpointF,PressureIn,WindDirection,WindDirectionDegrees,WindSpeedMPH,WindSpeedGustMPH,Humidity,HourlyPrecipIn,Conditions,Clouds,dailyrainin,SoftwareType,DateUTC
2013-08-11 00:05:00,62.3,53.5,29.88,West,264,0.0,0.0,73,0.00,,---,0.00,VWS V13.01,2013-08-11 07:05:00,
2013-08-11 00:10:00,62.1,53.3,29.88,West,264,0.0,0.0,73,0.00,,---,0.00,VWS V13.01,2013-08-11 07:10:00,
2013-08-11 00:15:00,62.0,53.3,29.88,West,264,0.0,0.0,73,0.00,,---,0.00,VWS V13.01,2013-08-11 07:15:00,
2013-08-11 00:20:00,62.0,53.6,29.88,West,264,0.0,0.0,74,0.00,,---,0.00,VWS V13.01,2013-08-11 07:20:00,
2013-08-11 00:25:00,61.8,53.4,29.88,West,264,0.0,0.0,74,0.00,,---,0.00,VWS V13.01,2013-08-11 07:25:00,
2013-08-11 00:31:00,61.8,53.4,29.88,West,264,0.0,0.0,74,0.00,,---,0.00,VWS V13.01,2013-08-11 07:31:00,
2013-08-11 00:36:00,61.5,53.5,29.88,West,264,0.0,0.0,75,0.00,,---,0.00,VWS V13.01,2013-08-11 07:36:00,
2013-08-11 00:41:00,61.5,53.5,29.88,West,264,0.0,0.0,75,0.00,,---,0.00,VWS V13.01,2013-08-11 07:41:00,
2013-08-11 00:46:00,61.3,53.7,29.88,West,264,0.0,0.0,76,0.00,,---,0.00,VWS V13.01,2013-08-11 07:46:00,
2013-08-11 00:51:00,61.3,53.7,29.88,West,264,0.0,0.0,76,0.00,,---,0.00,VWS V13.01,2013-08-11 07:51:00,
2013-08-11 00:56:00,61.2,53.9,29.88,West,264,0.0,0.0,77,0.00,,---,0.00,VWS V13.01,2013-08-11 07:56:00,
2013-08-11 01:01:00,61.0,53.8,29.88,West,264,0.0,0.0,77,0.00,,---,0.00,VWS V13.01,2013-08-11 08:01:00,
2013-08-11 01:06:00,60.9,53.7,29.88,West,264,0.0,0.0,77,0.00,,---,0.00,VWS V13.01,2013-08-11 08:06:00,
2013-08-11 01:12:00,60.7,53.5,29.88,West,264,0.0,0.0,77,0.00,,---,0.00,VWS V13.01,2013-08-11 08:12:00,
2013-08-11 01:17:00,61.0,54.5,29.88,SE,133,0.0,2.0,79,0.00,,---,0.00,VWS V13.01,2013-08-11 08:17:00,
2013-08-11 01:22:00,61.3,54.7,29.88,SE,133,0.0,2.0,79,0.00,,---,0.00,VWS V13.01,2013-08-11 08:22:00,
2013-08-11 01:27:00,61.5,55.3,29.88,SE,133,0.0,2.0,80,0.00,,---,0.00,VWS V13.01,2013-08-11 08:27:00,
2013-08-11 01:32:00,61.3,55.1,29.88,SE,133,0.0,2.0,80,0.00,,---,0.00,VWS V13.01,2013-08-11 08:32:00,
2013-08-11 01:37:00,61.0,54.5,29.88,SE,133,0.0,0.0,79,0.00,,---,0.00,VWS V13.01,2013-08-11 08:37:00,
2013-08-11 01:42:00,60.7,53.8,29.88,SE,133,0.0,0.0,78,0.00,,---,0.00,VWS V13.01,2013-08-11 08:42:00,
2013-08-11 01:47:00,60.4,53.5,29.88,SE,133,0.0,0.0,78,0.00,,---,0.00,VWS V13.01,2013-08-11 08:47:00,
2013-08-11 01:52:00,60.1,53.2,29.88,SE,133,0.0,0.0,78,0.00,,---,0.00,VWS V13.01,2013-08-11 08:52:00,
2013-08-11 01:58:00,59.8,52.9,29.88,SE,133,0.0,0.0,78,0.00,,---,0.00,VWS V13.01,2013-08-11 08:58:00,
2013-08-11 02:03:00,59.6,52.7,29.88,SE,133,0.0,0.0,78,0.00,,---,0.00,VWS V13.01,2013-08-11 09:03:00,
2013-08-11 02:08:00,59.3,52.5,29.88,SE,133,0.0,0.0,78,0.00,,---,0.00,VWS V13.01,2013-08-11 09:08:00,
2013-08-11 02:14:00,59.2,52.7,29.88,SE,133,0.0,0.0,79,0.00,,---,0.00,VWS V13.01,2013-08-11 09:14:00,
2013-08-11 02:19:00,59.0,52.5,29.89,SE,133,0.0,0.0,79,0.00,,---,0.00,VWS V13.01,2013-08-11 09:19:00,
2013-08-11 02:24:00,58.9,52.4,29.89,SE,133,0.0,0.0,79,0.00,,---,0.00,VWS V13.01,2013-08-11 09:24:00,
2013-08-11 02:30:00,58.7,52.2,29.89,SE,133,0.0,0.0,79,0.00,,---,0.00,VWS V13.01,2013-08-11 09:30:00,
2013-08-11 02:35:00,58.6,52.1,29.89,SE,133,0.0,0.0,79,0.00,,---,0.00,VWS V13.01,2013-08-11 09:35:00,
2013-08-11 02:40:00,58.4,52.3,29.89,SE,133,0.0,0.0,80,0.00,,---,0.00,VWS V13.01,2013-08-11 09:40:00,
2013-08-11 02:45:00,58.3,52.2,29.89,SE,133,0.0,0.0,80,0.00,,---,0.00,VWS V13.01,2013-08-11 09:45:00,
2013-08-11 02:50:00,58.3,52.2,29.89,SE,133,0.0,0.0,80,0.00,,---,0.00,VWS V13.01,2013-08-11 09:50:00,
2013-08-11 02:55:00,58.1,52.0,29.89,SE,133,0.0,0.0,80,0.00,,---,0.00,VWS V13.01,2013-08-11 09:55:00,
2013-08-11 03:00:00,58.0,51.9,29.89,SE,133,0.0,0.0,80,0.00,,---,0.00,VWS V13.01,2013-08-11 10:00:00,
2013-08-11 03:05:00,57.8,52.0,29.89,SE,133,0.0,0.0,81,0.00,,---,0.00,VWS V13.01,2013-08-11 10:05:00,
2013-08-11 03:10:00,57.8,52.0,29.89,SE,133,0.0,0.0,81,0.00,,---,0.00,VWS V13.01,2013-08-11 10:10:00,
2013-08-11 03:15:00,57.6,51.8,29.89,SE,133,0.0,0.0,81,0.00,,---,0.00,VWS V13.01,2013-08-11 10:15:00,
2013-08-11 03:20:00,57.5,51.7,29.89,SE,133,0.0,0.0,81,0.00,,---,0.00,VWS V13.01,2013-08-11 10:20:00,
2013-08-11 03:26:00,57.3,51.9,29.89,SE,133,0.0,0.0,82,0.00,,---,0.00,VWS V13.01,2013-08-11 10:26:00,
2013-08-11 03:31:00,57.3,51.9,29.89,SE,133,0.0,0.0,82,0.00,,---,0.00,VWS V13.01,2013-08-11 10:31:00,
2013-08-11 03:36:00,57.2,51.8,29.88,SE,133,0.0,0.0,82,0.00,,---,0.00,VWS V13.01,2013-08-11 10:36:00,
2013-08-11 03:41:00,57.2,52.1,29.88,SE,133,0.0,0.0,83,0.00,,---,0.00,VWS V13.01,2013-08-11 10:41:00,
2013-08-11 03:46:00,57.0,51.9,29.88,SE,133,0.0,0.0,83,0.00,,---,0.00,VWS V13.01,2013-08-11 10:46:00,
2013-08-11 03:51:00,57.0,51.9,29.88,SE,133,0.0,0.0,83,0.00,,---,0.00,VWS V13.01,2013-08-11 10:51:00,
2013-08-11 03:56:00,56.9,51.8,29.88,SE,133,0.0,0.0,83,0.00,,---,0.00,VWS V13.01,2013-08-11 10:56:00,
2013-08-11 04:02:00,56.7,51.6,29.88,SE,133,0.0,0.0,83,0.00,,---,0.00,VWS V13.01,2013-08-11 11:02:00,
2013-08-11 04:07:00,56.7,51.6,29.88,SE,133,0.0,0.0,83,0.00,,---,0.00,VWS V13.01,2013-08-11 11:07:00,
2013-08-11 04:12:00,56.6,51.8,29.88,SE,133,0.0,0.0,84,0.00,,---,0.00,VWS V13.01,2013-08-11 11:12:00,
2013-08-11 04:17:00,56.5,51.7,29.88,SE,133,0.0,0.0,84,0.00,,---,0.00,VWS V13.01,2013-08-11 11:17:00,
2013-08-11 04:23:00,56.5,51.7,29.88,SE,133,0.0,0.0,84,0.00,,---,0.00,VWS V13.01,2013-08-11 11:23:00,
2013-08-11 04:28:00,56.3,51.5,29.88,SE,133,0.0,0.0,84,0.00,,---,0.00,VWS V13.01,2013-08-11 11:28:00,
2013-08-11 04:33:00,56.3,51.5,29.88,SE,133,0.0,0.0,84,0.00,,---,0.00,VWS V13.01,2013-08-11 11:33:00,
2013-08-11 04:38:00,56.3,51.5,29.88,SE,133,0.0,0.0,84,0.00,,---,0.00,VWS V13.01,2013-08-11 11:38:00,
2013-08-11 04:44:00,56.3,51.5,29.88,SE,133,0.0,0.0,84,0.00,,---,0.00,VWS V13.01,2013-08-11 11:44:00,
2013-08-11 04:49:00,56.3,51.9,29.88,SE,133,0.0,0.0,85,0.00,,---,0.00,VWS V13.01,2013-08-11 11:49:00,
2013-08-11 04:54:00,56.2,51.8,29.88,SE,133,0.0,0.0,85,0.00,,---,0.00,VWS V13.01,2013-08-11 11:54:00,
2013-08-11 04:59:00,56.2,51.8,29.88,SE,133,0.0,0.0,85,0.00,,---,0.00,VWS V13.01,2013-08-11 11:59:00,
2013-08-11 05:04:00,56.2,51.8,29.88,SE,133,0.0,0.0,85,0.00,,---,0.00,VWS V13.01,2013-08-11 12:04:00,
2013-08-11 05:09:00,56.2,51.8,29.88,SE,133,0.0,0.0,85,0.00,,---,0.00,VWS V13.01,2013-08-11 12:09:00,
2013-08-11 05:14:00,56.0,51.6,29.88,SE,133,0.0,0.0,85,0.00,,---,0.00,VWS V13.01,2013-08-11 12:14:00,
2013-08-11 05:19:00,56.0,51.6,29.88,SE,133,0.0,0.0,85,0.00,,---,0.00,VWS V13.01,2013-08-11 12:19:00,
2013-08-11 05:24:00,56.0,51.6,29.88,SE,133,0.0,0.0,85,0.00,,---,0.00,VWS V13.01,2013-08-11 12:24:00,
2013-08-11 05:30:00,56.0,51.6,29.88,SE,133,0.0,0.0,85,0.00,,---,0.00,VWS V13.01,2013-08-11 12:30:00,
2013-08-11 05:35:00,56.0,51.9,29.88,SE,133,0.0,0.0,86,0.00,,---,0.00,VWS V13.01,2013-08-11 12:35:00,
2013-08-11 05:40:00,56.2,52.1,29.88,SE,133,0.0,0.0,86,0.00,,---,0.00,VWS V13.01,2013-08-11 12:40:00,
2013-08-11 05:45:00,56.2,52.1,29.88,SE,133,0.0,0.0,86,0.00,,---,0.00,VWS V13.01,2013-08-11 12:45:00,
2013-08-11 05:51:00,56.2,52.1,29.88,SE,133,0.0,0.0,86,0.00,,---,0.00,VWS V13.01,2013-08-11 12:51:00,
2013-08-11 05:56:00,56.2,52.1,29.88,SE,133,0.0,0.0,86,0.00,,---,0.00,VWS V13.01,2013-08-11 12:56:00,
2013-08-11 06:01:00,56.2,52.1,29.88,SE,133,0.0,0.0,86,0.00,,---,0.00,VWS V13.01,2013-08-11 13:01:00,
2013-08-11 06:06:00,56.0,51.9,29.88,SE,133,0.0,0.0,86,0.00,,---,0.00,VWS V13.01,2013-08-11 13:06:00,
2013-08-11 06:11:00,56.0,51.9,29.88,SE,133,0.0,0.0,86,0.00,,---,0.00,VWS V13.01,2013-08-11 13:11:00,
2013-08-11 06:16:00,56.0,51.9,29.88,SE,133,0.0,0.0,86,0.00,,---,0.00,VWS V13.01,2013-08-11 13:16:00,
2013-08-11 06:21:00,55.9,51.8,29.89,SE,133,0.0,0.0,86,0.00,,---,0.00,VWS V13.01,2013-08-11 13:21:00,
2013-08-11 06:26:00,55.9,52.1,29.89,SE,133,0.0,0.0,87,0.00,,---,0.00,VWS V13.01,2013-08-11 13:26:00,
2013-08-11 06:31:00,55.9,52.1,29.89,SE,133,0.0,0.0,87,0.00,,---,0.00,VWS V13.01,2013-08-11 13:31:00,
2013-08-11 06:36:00,55.9,52.1,29.89,SE,133,0.0,0.0,87,0.00,,---,0.00,VWS V13.01,2013-08-11 13:36:00,
2013-08-11 06:42:00,56.0,52.2,29.89,SE,133,0.0,0.0,87,0.00,,---,0.00,VWS V13.01,2013-08-11 13:42:00,
2013-08-11 06:47:00,56.0,52.2,29.89,SE,133,0.0,0.0,87,0.00,,---,0.00,VWS V13.01,2013-08-11 13:47:00,
2013-08-11 06:52:00,56.0,52.2,29.89,SE,133,0.0,0.0,87,0.00,,---,0.00,VWS V13.01,2013-08-11 13:52:00,
2013-08-11 06:57:00,56.2,52.4,29.89,SE,133,0.0,0.0,87,0.00,,---,0.00,VWS V13.01,2013-08-11 13:57:00,
2013-08-11 07:02:00,56.3,52.5,29.89,SE,133,0.0,0.0,87,0.00,,---,0.00,VWS V13.01,2013-08-11 14:02:00,
2013-08-11 07:08:00,56.5,52.7,29.89,SE,133,0.0,0.0,87,0.00,,---,0.00,VWS V13.01,2013-08-11 14:08:00,
2013-08-11 07:13:00,56.7,52.9,29.89,SE,133,0.0,0.0,87,0.00,,---,0.00,VWS V13.01,2013-08-11 14:13:00,
2013-08-11 07:18:00,56.9,53.1,29.90,SE,133,0.0,0.0,87,0.00,,---,0.00,VWS V13.01,2013-08-11 14:18:00,
2013-08-11 07:24:00,57.3,53.5,29.90,SE,133,0.0,0.0,87,0.00,,---,0.00,VWS V13.01,2013-08-11 14:24:00,
2013-08-11 07:29:00,57.5,53.7,29.90,SE,133,0.0,0.0,87,0.00,,---,0.00,VWS V13.01,2013-08-11 14:29:00,
2013-08-11 07:35:00,58.3,54.5,29.90,SE,133,0.0,0.0,87,0.00,,---,0.00,VWS V13.01,2013-08-11 14:35:00,
2013-08-11 07:41:00,58.9,55.0,29.90,SE,133,0.0,0.0,87,0.00,,---,0.00,VWS V13.01,2013-08-11 14:41:00,
2013-08-11 07:46:00,59.3,55.1,29.90,SE,133,0.0,0.0,86,0.00,,---,0.00,VWS V13.01,2013-08-11 14:46:00,
2013-08-11 07:51:00,59.8,55.6,29.90,SE,133,0.0,0.0,86,0.00,,---,0.00,VWS V13.01,2013-08-11 14:51:00,
2013-08-11 07:56:00,60.2,55.7,29.90,SE,133,0.0,1.0,85,0.00,,---,0.00,VWS V13.01,2013-08-11 14:56:00,
2013-08-11 08:02:00,60.5,55.7,29.90,SE,133,0.0,1.0,84,0.00,,---,0.00,VWS V13.01,2013-08-11 15:02:00,
2013-08-11 08:07:00,60.9,56.0,29.90,SE,130,0.0,2.0,84,0.00,,---,0.00,VWS V13.01,2013-08-11 15:07:00,
2013-08-11 08:12:00,61.2,56.0,29.90,SE,128,0.0,2.0,83,0.00,,---,0.00,VWS V13.01,2013-08-11 15:12:00,
2013-08-11 08:17:00,61.6,56.1,29.90,SE,128,0.0,2.0,82,0.00,,---,0.00,VWS V13.01,2013-08-11 15:17:00,
2013-08-11 08:22:00,61.8,55.9,29.90,SE,128,0.0,2.0,81,0.00,,---,0.00,VWS V13.01,2013-08-11 15:22:00,
2013-08-11 08:27:00,62.4,56.5,29.90,ESE,113,0.0,2.0,81,0.00,,---,0.00,VWS V13.01,2013-08-11 15:27:00,
2013-08-11 08:32:00,62.9,56.6,29.90,ESE,113,0.0,0.0,80,0.00,,---,0.00,VWS V13.01,2013-08-11 15:32:00,
2013-08-11 08:37:00,63.2,56.6,29.90,North,354,0.0,1.0,79,0.00,,---,0.00,VWS V13.01,2013-08-11 15:37:00,
2013-08-11 08:42:00,63.4,56.1,29.90,North,354,0.0,1.0,77,0.00,,---,0.00,VWS V13.01,2013-08-11 15:42:00,
2013-08-11 08:48:00,63.5,55.8,29.89,NNW,332,0.0,1.0,76,0.00,,---,0.00,VWS V13.01,2013-08-11 15:48:00,
2013-08-11 08:53:00,63.9,56.2,29.89,NNW,332,0.0,1.0,76,0.00,,---,0.00,VWS V13.01,2013-08-11 15:53:00,
2013-08-11 08:58:00,64.5,56.8,29.89,NNW,332,0.0,1.0,76,0.00,,---,0.00,VWS V13.01,2013-08-11 15:58:00,
2013-08-11 09:03:00,65.2,57.1,29.89,NNW,332,0.0,1.0,75,0.00,,---,0.00,VWS V13.01,2013-08-11 16:03:00,
2013-08-11 09:08:00,65.6,56.7,29.89,NNW,332,0.0,0.0,73,0.00,,---,0.00,VWS V13.01,2013-08-11 16:08:00,
2013-08-11 09:13:00,66.1,57.2,29.89,NNW,332,0.0,0.0,73,0.00,,---,0.00,VWS V13.01,2013-08-11 16:13:00,
2013-08-11 09:18:00,66.8,56.3,29.89,North,356,0.0,1.0,69,0.00,,---,0.00,VWS V13.01,2013-08-11 16:18:00,
2013-08-11 09:23:00,67.8,56.5,29.89,North,356,0.0,1.0,67,0.00,,---,0.00,VWS V13.01,2013-08-11 16:23:00,
2013-08-11 09:28:00,68.6,56.8,29.89,East,100,0.0,2.0,66,0.00,,---,0.00,VWS V13.01,2013-08-11 16:28:00,
2013-08-11 09:33:00,69.4,56.7,29.89,East,90,0.0,0.0,64,0.00,,---,0.00,VWS V13.01,2013-08-11 16:33:00,
2013-08-11 09:38:00,69.4,56.7,29.89,East,88,0.0,0.0,64,0.00,,---,0.00,VWS V13.01,2013-08-11 16:38:00,
2013-08-11 09:44:00,70.8,56.7,29.89,North,10,1.0,2.0,61,0.00,,---,0.00,VWS V13.01,2013-08-11 16:44:00,
2013-08-11 09:49:00,71.1,56.5,29.89,East,82,0.0,3.0,60,0.00,,---,0.00,VWS V13.01,2013-08-11 16:49:00,
2013-08-11 09:54:00,71.5,57.4,29.89,East,82,0.0,3.0,61,0.00,,---,0.00,VWS V13.01,2013-08-11 16:54:00,
2013-08-11 09:59:00,72.0,57.4,29.89,ENE,69,0.0,3.0,60,0.00,,---,0.00,VWS V13.01,2013-08-11 16:59:00,
2013-08-11 10:04:00,72.5,56.9,29.89,North,359,0.0,1.0,58,0.00,,---,0.00,VWS V13.01,2013-08-11 17:04:00,
2013-08-11 10:10:00,72.7,56.6,29.89,North,359,0.0,1.0,57,0.00,,---,0.00,VWS V13.01,2013-08-11 17:10:00,
2013-08-11 10:15:00,73.7,57.0,29.89,ENE,64,0.0,1.0,56,0.00,,---,0.00,VWS V13.01,2013-08-11 17:15:00,
2013-08-11 10:20:00,74.2,56.5,29.89,ENE,64,0.0,5.0,54,0.00,,---,0.00,VWS V13.01,2013-08-11 17:20:00,
2013-08-11 10:25:00,74.4,56.7,29.89,North,0,0.0,5.0,54,0.00,,---,0.00,VWS V13.01,2013-08-11 17:25:00,
2013-08-11 10:30:00,74.2,56.0,29.89,West,264,2.0,5.0,53,0.00,,---,0.00,VWS V13.01,2013-08-11 17:30:00,
2013-08-11 10:36:00,74.0,56.8,29.88,NW,311,0.0,2.0,55,0.00,,---,0.00,VWS V13.01,2013-08-11 17:36:00,
2013-08-11 10:41:00,74.4,56.7,29.88,East,93,1.0,2.0,54,0.00,,---,0.00,VWS V13.01,2013-08-11 17:41:00,
2013-08-11 10:46:00,75.1,56.8,29.88,East,95,0.0,2.0,53,0.00,,---,0.00,VWS V13.01,2013-08-11 17:46:00,
2013-08-11 10:52:00,75.6,56.8,29.88,NNW,347,0.0,5.0,52,0.00,,---,0.00,VWS V13.01,2013-08-11 17:52:00,
2013-08-11 10:57:00,75.8,56.9,29.88,ENE,75,0.0,5.0,52,0.00,,---,0.00,VWS V13.01,2013-08-11 17:57:00,
2013-08-11 11:02:00,76.1,56.7,29.87,ENE,73,0.0,5.0,51,0.00,,---,0.00,VWS V13.01,2013-08-11 18:02:00,
2013-08-11 11:07:00,76.5,55.4,29.87,NNW,340,0.0,2.0,48,0.00,,---,0.00,VWS V13.01,2013-08-11 18:07:00,
2013-08-11 11:12:00,77.0,55.8,29.87,East,82,0.0,2.0,48,0.00,,---,0.00,VWS V13.01,2013-08-11 18:12:00,
2013-08-11 11:17:00,77.7,55.9,29.87,East,82,0.0,2.0,47,0.00,,---,0.00,VWS V13.01,2013-08-11 18:17:00,
2013-08-11 11:22:00,77.9,56.7,29.87,East,82,0.0,3.0,48,0.00,,---,0.00,VWS V13.01,2013-08-11 18:22:00,
2013-08-11 11:27:00,78.3,55.8,29.87,NNW,342,0.0,3.0,46,0.00,,---,0.00,VWS V13.01,2013-08-11 18:27:00,
2013-08-11 11:33:00,78.3,55.8,29.87,East,83,0.0,0.0,46,0.00,,---,0.00,VWS V13.01,2013-08-11 18:33:00,
2013-08-11 11:38:00,78.6,55.5,29.87,North,357,0.0,2.0,45,0.00,,---,0.00,VWS V13.01,2013-08-11 18:38:00,
2013-08-11 11:43:00,78.8,55.1,29.87,North,0,0.0,3.0,44,0.00,,---,0.00,VWS V13.01,2013-08-11 18:43:00,
2013-08-11 11:49:00,78.8,55.1,29.86,North,349,0.0,3.0,44,0.00,,---,0.00,VWS V13.01,2013-08-11 18:49:00,
2013-08-11 11:54:00,79.0,55.2,29.86,North,350,0.0,3.0,44,0.00,,---,0.00,VWS V13.01,2013-08-11 18:54:00,
2013-08-11 11:59:00,79.8,56.0,29.86,North,350,0.0,3.0,44,0.00,,---,0.00,VWS V13.01,2013-08-11 18:59:00,
2013-08-11 12:05:00,80.1,55.0,29.85,North,350,1.0,1.0,42,0.00,,---,0.00,VWS V13.01,2013-08-11 19:05:00,
2013-08-11 12:10:00,80.5,55.3,29.85,North,3,1.0,3.0,42,0.00,,---,0.00,VWS V13.01,2013-08-11 19:10:00,
2013-08-11 12:15:00,80.7,54.8,29.85,East,88,0.0,5.0,41,0.00,,---,0.00,VWS V13.01,2013-08-11 19:15:00,
2013-08-11 12:20:00,80.7,54.2,29.85,North,1,0.0,5.0,40,0.00,,---,0.00,VWS V13.01,2013-08-11 19:20:00,
2013-08-11 12:25:00,80.7,54.8,29.85,North,1,0.0,5.0,41,0.00,,---,0.00,VWS V13.01,2013-08-11 19:25:00,
2013-08-11 12:30:00,81.1,53.8,29.85,North,1,0.0,5.0,39,0.00,,---,0.00,VWS V13.01,2013-08-11 19:30:00,
2013-08-11 12:35:00,81.4,54.8,29.85,ESE,112,0.0,2.0,40,0.00,,---,0.00,VWS V13.01,2013-08-11 19:35:00,
2013-08-11 12:40:00,82.0,55.3,29.85,ESE,104,2.0,2.0,40,0.00,,---,0.00,VWS V13.01,2013-08-11 19:40:00,
2013-08-11 12:45:00,82.6,54.5,29.85,North,8,0.0,3.0,38,0.00,,---,0.00,VWS V13.01,2013-08-11 19:45:00,
2013-08-11 12:50:00,82.8,53.9,29.84,North,8,0.0,3.0,37,0.00,,---,0.00,VWS V13.01,2013-08-11 19:50:00,
2013-08-11 12:55:00,83.2,54.2,29.84,NE,34,0.0,3.0,37,0.00,,---,0.00,VWS V13.01,2013-08-11 19:55:00,
2013-08-11 13:00:00,83.0,53.3,29.84,West,270,0.0,5.0,36,0.00,,---,0.00,VWS V13.01,2013-08-11 20:00:00,
2013-08-11 13:06:00,83.6,55.3,29.83,WSW,254,0.0,2.0,38,0.00,,---,0.00,VWS V13.01,2013-08-11 20:06:00,
2013-08-11 13:12:00,84.3,55.2,29.83,East,83,1.0,2.0,37,0.00,,---,0.00,VWS V13.01,2013-08-11 20:12:00,
2013-08-11 13:17:00,84.7,54.0,29.83,WNW,291,0.0,3.0,35,0.00,,---,0.00,VWS V13.01,2013-08-11 20:17:00,
2013-08-11 13:22:00,84.7,55.6,29.83,WSW,257,0.0,5.0,37,0.00,,---,0.00,VWS V13.01,2013-08-11 20:22:00,
2013-08-11 13:27:00,85.1,55.9,29.83,East,82,0.0,5.0,37,0.00,,---,0.00,VWS V13.01,2013-08-11 20:27:00,
2013-08-11 13:32:00,85.5,56.3,29.83,East,97,2.0,5.0,37,0.00,,---,0.00,VWS V13.01,2013-08-11 20:32:00,
2013-08-11 13:37:00,85.7,54.1,29.83,East,93,0.0,2.0,34,0.00,,---,0.00,VWS V13.01,2013-08-11 20:37:00,
2013-08-11 13:42:00,85.7,54.1,29.83,East,82,0.0,2.0,34,0.00,,---,0.00,VWS V13.01,2013-08-11 20:42:00,
2013-08-11 13:47:00,86.7,55.0,29.82,East,83,0.0,2.0,34,0.00,,---,0.00,VWS V13.01,2013-08-11 20:47:00,
2013-08-11 13:53:00,86.7,53.3,29.82,WSW,240,0.0,5.0,32,0.00,,---,0.00,VWS V13.01,2013-08-11 20:53:00,
2013-08-11 13:58:00,86.3,53.8,29.82,WSW,241,0.0,5.0,33,0.00,,---,0.00,VWS V13.01,2013-08-11 20:58:00,
2013-08-11 14:03:00,86.5,55.6,29.82,West,265,4.0,6.0,35,0.00,,---,0.00,VWS V13.01,2013-08-11 21:03:00,
2013-08-11 14:08:00,86.7,53.3,29.82,WNW,282,6.0,10.0,32,0.00,,---,0.00,VWS V13.01,2013-08-11 21:08:00,
2013-08-11 14:13:00,86.5,53.2,29.82,WSW,254,0.0,11.0,32,0.00,,---,0.00,VWS V13.01,2013-08-11 21:13:00,
2013-08-11 14:18:00,86.3,54.7,29.82,West,260,7.0,11.0,34,0.00,,---,0.00,VWS V13.01,2013-08-11 21:18:00,
2013-08-11 14:23:00,86.7,51.6,29.82,WSW,256,0.0,11.0,30,0.00,,---,0.00,VWS V13.01,2013-08-11 21:23:00,
2013-08-11 14:29:00,87.2,51.1,29.82,West,280,0.0,11.0,29,0.00,,---,0.00,VWS V13.01,2013-08-11 21:29:00,
2013-08-11 14:34:00,87.4,52.2,29.81,West,267,0.0,0.0,30,0.00,,---,0.00,VWS V13.01,2013-08-11 21:34:00,
2013-08-11 14:40:00,87.8,53.4,29.81,West,265,1.0,8.0,31,0.00,,---,0.00,VWS V13.01,2013-08-11 21:40:00,
2013-08-11 14:45:00,87.8,53.4,29.81,West,265,0.0,8.0,31,0.00,,---,0.00,VWS V13.01,2013-08-11 21:45:00,
2013-08-11 14:50:00,87.8,52.5,29.81,West,260,0.0,8.0,30,0.00,,---,0.00,VWS V13.01,2013-08-11 21:50:00,
2013-08-11 14:55:00,87.8,55.2,29.81,WSW,253,3.0,8.0,33,0.00,,---,0.00,VWS V13.01,2013-08-11 21:55:00,
2013-08-11 15:00:00,87.6,53.3,29.81,West,260,5.0,10.0,31,0.00,,---,0.00,VWS V13.01,2013-08-11 22:00:00,
2013-08-11 15:05:00,87.4,52.2,29.80,WSW,246,2.0,7.0,30,0.00,,---,0.00,VWS V13.01,2013-08-11 22:05:00,
2013-08-11 15:11:00,87.6,53.3,29.80,WSW,256,10.0,10.0,31,0.00,,---,0.00,VWS V13.01,2013-08-11 22:11:00,
2013-08-11 15:16:00,87.6,53.3,29.80,WSW,258,0.0,12.0,31,0.00,,---,0.00,VWS V13.01,2013-08-11 22:16:00,
2013-08-11 15:21:00,87.4,54.0,29.80,SW,223,6.0,12.0,32,0.00,,---,0.00,VWS V13.01,2013-08-11 22:21:00,
2013-08-11 15:26:00,87.4,54.8,29.80,West,265,6.0,12.0,33,0.00,,---,0.00,VWS V13.01,2013-08-11 22:26:00,
2013-08-11 15:31:00,87.0,52.7,29.80,West,267,5.0,12.0,31,0.00,,---,0.00,VWS V13.01,2013-08-11 22:31:00,
2013-08-11 15:36:00,87.0,53.6,29.80,West,264,11.0,11.0,32,0.00,,---,0.00,VWS V13.01,2013-08-11 22:36:00,
2013-08-11 15:41:00,86.7,53.3,29.80,West,261,6.0,11.0,32,0.00,,---,0.00,VWS V13.01,2013-08-11 22:41:00,
2013-08-11 15:47:00,86.5,52.3,29.80,West,265,0.0,11.0,31,0.00,,---,0.00,VWS V13.01,2013-08-11 22:47:00,
2013-08-11 15:52:00,86.7,53.3,29.80,SW,220,8.0,11.0,32,0.00,,---,0.00,VWS V13.01,2013-08-11 22:52:00,
2013-08-11 15:57:00,86.7,54.2,29.80,West,264,3.0,11.0,33,0.00,,---,0.00,VWS V13.01,2013-08-11 22:57:00,
2013-08-11 16:03:00,86.5,54.8,29.80,West,261,0.0,1.0,34,0.00,,---,0.00,VWS V13.01,2013-08-11 23:03:00,
2013-08-11 16:08:00,86.5,54.0,29.80,West,274,7.0,11.0,33,0.00,,---,0.00,VWS V13.01,2013-08-11 23:08:00,
2013-08-11 16:13:00,86.3,53.0,29.80,West,270,1.0,11.0,32,0.00,,---,0.00,VWS V13.01,2013-08-11 23:13:00,
2013-08-11 16:18:00,86.1,52.8,29.80,WSW,250,7.0,11.0,32,0.00,,---,0.00,VWS V13.01,2013-08-11 23:18:00,
2013-08-11 16:23:00,85.9,51.8,29.80,WSW,250,8.0,11.0,31,0.00,,---,0.00,VWS V13.01,2013-08-11 23:23:00,
2013-08-11 16:29:00,85.7,50.7,29.80,West,271,10.0,11.0,30,0.00,,---,0.00,VWS V13.01,2013-08-11 23:29:00,
2013-08-11 16:35:00,85.3,50.4,29.80,West,267,0.0,6.0,30,0.00,,---,0.00,VWS V13.01,2013-08-11 23:35:00,
2013-08-11 16:40:00,85.1,48.4,29.80,WSW,244,3.0,8.0,28,0.00,,---,0.00,VWS V13.01,2013-08-11 23:40:00,
2013-08-11 16:45:00,85.1,48.4,29.80,WSW,258,4.0,12.0,28,0.00,,---,0.00,VWS V13.01,2013-08-11 23:45:00,
2013-08-11 16:50:00,85.3,48.5,29.79,West,271,6.0,12.0,28,0.00,,---,0.00,VWS V13.01,2013-08-11 23:50:00,
2013-08-11 16:55:00,85.1,48.4,29.79,WSW,250,2.0,12.0,28,0.00,,---,0.00,VWS V13.01,2013-08-11 23:55:00,
2013-08-11 17:01:00,84.7,48.0,29.79,WSW,258,12.0,12.0,28,0.00,,---,0.00,VWS V13.01,2013-08-12 00:01:00,
2013-08-11 17:06:00,84.3,47.7,29.79,WSW,251,1.0,12.0,28,0.00,,---,0.00,VWS V13.01,2013-08-12 00:06:00,
2013-08-11 17:11:00,84.5,49.7,29.79,WSW,254,5.0,12.0,30,0.00,,---,0.00,VWS V13.01,2013-08-12 00:11:00,
2013-08-11 17:16:00,84.5,49.7,29.79,WSW,243,5.0,12.0,30,0.00,,---,0.00,VWS V13.01,2013-08-12 00:16:00,
2013-08-11 17:21:00,84.3,49.5,29.79,WSW,237,7.0,12.0,30,0.00,,---,0.00,VWS V13.01,2013-08-12 00:21:00,
2013-08-11 17:26:00,84.1,49.3,29.79,SW,234,0.0,12.0,30,0.00,,---,0.00,VWS V13.01,2013-08-12 00:26:00,
2013-08-11 17:31:00,84.0,49.3,29.79,West,265,5.0,12.0,30,0.00,,---,0.00,VWS V13.01,2013-08-12 00:31:00,
2013-08-11 17:37:00,84.0,49.3,29.79,West,261,0.0,1.0,30,0.00,,---,0.00,VWS V13.01,2013-08-12 00:37:00,
2013-08-11 17:42:00,83.4,49.6,29.79,WSW,251,0.0,10.0,31,0.00,,---,0.00,VWS V13.01,2013-08-12 00:42:00,
2013-08-11 17:47:00,83.4,50.5,29.79,West,263,3.0,10.0,32,0.00,,---,0.00,VWS V13.01,2013-08-12 00:47:00,
2013-08-11 17:52:00,83.0,48.4,29.79,WSW,248,3.0,10.0,30,0.00,,---,0.00,VWS V13.01,2013-08-12 00:52:00,
2013-08-11 17:57:00,82.8,49.1,29.79,West,260,0.0,10.0,31,0.00,,---,0.00,VWS V13.01,2013-08-12 00:57:00,
2013-08-11 18:03:00,82.8,49.1,29.79,West,267,4.0,10.0,31,0.00,,---,0.00,VWS V13.01,2013-08-12 01:03:00,
2013-08-11 18:08:00,82.6,48.9,29.79,WSW,256,3.0,5.0,31,0.00,,---,0.00,VWS V13.01,2013-08-12 01:08:00,
2013-08-11 18:13:00,82.6,51.4,29.79,WSW,257,0.0,5.0,34,0.00,,---,0.00,VWS V13.01,2013-08-12 01:13:00,
2013-08-11 18:18:00,82.4,51.2,29.79,WSW,246,0.0,7.0,34,0.00,,---,0.00,VWS V13.01,2013-08-12 01:18:00,
2013-08-11 18:24:00,82.2,51.1,29.79,WSW,250,3.0,7.0,34,0.00,,---,0.00,VWS V13.01,2013-08-12 01:24:00,
2013-08-11 18:29:00,81.8,50.7,29.79,West,271,2.0,7.0,34,0.00,,---,0.00,VWS V13.01,2013-08-12 01:29:00,
2013-08-11 18:34:00,81.4,51.2,29.78,West,267,0.0,1.0,35,0.00,,---,0.00,VWS V13.01,2013-08-12 01:34:00,
2013-08-11 18:39:00,80.9,50.7,29.78,WSW,258,0.0,3.0,35,0.00,,---,0.00,VWS V13.01,2013-08-12 01:39:00,
2013-08-11 18:44:00,80.5,50.4,29.78,West,268,5.0,6.0,35,0.00,,---,0.00,VWS V13.01,2013-08-12 01:44:00,
2013-08-11 18:49:00,79.8,51.2,29.79,WSW,257,2.0,6.0,37,0.00,,---,0.00,VWS V13.01,2013-08-12 01:49:00,
2013-08-11 18:54:00,79.2,51.4,29.79,West,270,3.0,7.0,38,0.00,,---,0.00,VWS V13.01,2013-08-12 01:54:00,
2013-08-11 18:59:00,78.5,51.5,29.79,WSW,246,2.0,10.0,39,0.00,,---,0.00,VWS V13.01,2013-08-12 01:59:00,
2013-08-11 19:05:00,77.9,51.7,29.80,West,260,0.0,4.0,40,0.00,,---,0.00,VWS V13.01,2013-08-12 02:05:00,
2013-08-11 19:10:00,77.6,51.4,29.80,West,263,3.0,7.0,40,0.00,,---,0.00,VWS V13.01,2013-08-12 02:10:00,
2013-08-11 19:15:00,77.4,51.9,29.80,West,277,6.0,7.0,41,0.00,,---,0.00,VWS V13.01,2013-08-12 02:15:00,
2013-08-11 19:20:00,77.0,52.2,29.80,WSW,251,0.0,7.0,42,0.00,,---,0.00,VWS V13.01,2013-08-12 02:20:00,
2013-08-11 19:25:00,76.7,52.5,29.80,WSW,257,0.0,7.0,43,0.00,,---,0.00,VWS V13.01,2013-08-12 02:25:00,
2013-08-11 19:30:00,76.3,52.8,29.80,WSW,246,0.0,7.0,44,0.00,,---,0.00,VWS V13.01,2013-08-12 02:30:00,
2013-08-11 19:35:00,75.8,53.6,29.80,WNW,282,0.0,5.0,46,0.00,,---,0.00,VWS V13.01,2013-08-12 02:35:00,
2013-08-11 19:40:00,75.4,53.8,29.80,West,264,3.0,6.0,47,0.00,,---,0.00,VWS V13.01,2013-08-12 02:40:00,
2013-08-11 19:46:00,74.9,54.5,29.80,WSW,251,0.0,6.0,49,0.00,,---,0.00,VWS V13.01,2013-08-12 02:46:00,
2013-08-11 19:51:00,74.4,54.6,29.81,WSW,256,3.0,6.0,50,0.00,,---,0.00,VWS V13.01,2013-08-12 02:51:00,
2013-08-11 19:56:00,73.7,53.9,29.81,West,271,2.0,7.0,50,0.00,,---,0.00,VWS V13.01,2013-08-12 02:56:00,
2013-08-11 20:01:00,73.2,53.5,29.81,West,270,1.0,7.0,50,0.00,,---,0.00,VWS V13.01,2013-08-12 03:01:00,
2013-08-11 20:06:00,72.7,54.1,29.81,West,260,0.0,1.0,52,0.00,,---,0.00,VWS V13.01,2013-08-12 03:06:00,
2013-08-11 20:11:00,72.3,53.7,29.81,West,260,0.0,6.0,52,0.00,,---,0.00,VWS V13.01,2013-08-12 03:11:00,
2013-08-11 20:17:00,71.8,54.3,29.81,SW,234,0.0,6.0,54,0.00,,---,0.00,VWS V13.01,2013-08-12 03:17:00,
2013-08-11 20:22:00,71.6,54.1,29.81,SW,236,0.0,6.0,54,0.00,,---,0.00,VWS V13.01,2013-08-12 03:22:00,
2013-08-11 20:28:00,71.3,54.8,29.81,SW,236,0.0,6.0,56,0.00,,---,0.00,VWS V13.01,2013-08-12 03:28:00,
2013-08-11 20:33:00,71.3,54.8,29.82,SW,236,0.0,0.0,56,0.00,,---,0.00,VWS V13.01,2013-08-12 03:33:00,
2013-08-11 20:38:00,70.9,54.9,29.82,WSW,237,2.0,3.0,57,0.00,,---,0.00,VWS V13.01,2013-08-12 03:38:00,
2013-08-11 20:43:00,70.6,54.6,29.82,West,265,4.0,6.0,57,0.00,,---,0.00,VWS V13.01,2013-08-12 03:43:00,
2013-08-11 20:48:00,70.3,54.8,29.83,West,267,0.0,6.0,58,0.00,,---,0.00,VWS V13.01,2013-08-12 03:48:00,
2013-08-11 20:53:00,69.8,54.4,29.83,West,277,0.0,6.0,58,0.00,,---,0.00,VWS V13.01,2013-08-12 03:53:00,
2013-08-11 20:58:00,69.6,55.1,29.83,West,277,0.0,6.0,60,0.00,,---,0.00,VWS V13.01,2013-08-12 03:58:00,
2013-08-11 21:01:00,69.4,54.9,29.83,West,277,0.0,6.0,60,0.00,,---,0.00,VWS V13.01,2013-08-12 04:01:00,
2013-08-11 21:04:00,69.1,54.7,29.83,West,277,0.0,0.0,60,0.00,,---,0.00,VWS V13.01,2013-08-12 04:04:00,
2013-08-11 21:09:00,68.9,54.5,29.83,West,277,0.0,0.0,60,0.00,,---,0.00,VWS V13.01,2013-08-12 04:09:00,
2013-08-11 21:14:00,68.8,54.8,29.83,West,277,0.0,0.0,61,0.00,,---,0.00,VWS V13.01,2013-08-12 04:14:00,
2013-08-11 21:19:00,68.6,54.6,29.82,West,277,0.0,0.0,61,0.00,,---,0.00,VWS V13.01,2013-08-12 04:19:00,
2013-08-11 21:24:00,68.4,54.4,29.82,West,277,0.0,0.0,61,0.00,,---,0.00,VWS V13.01,2013-08-12 04:24:00,
2013-08-11 21:29:00,68.3,54.3,29.82,West,277,0.0,0.0,61,0.00,,---,0.00,VWS V13.01,2013-08-12 04:29:00,
2013-08-11 21:34:00,68.1,54.2,29.83,West,270,0.0,3.0,61,0.00,,---,0.00,VWS V13.01,2013-08-12 04:34:00,
2013-08-11 21:39:00,67.9,54.0,29.83,West,270,0.0,3.0,61,0.00,,---,0.00,VWS V13.01,2013-08-12 04:39:00,
2013-08-11 21:44:00,67.8,53.9,29.83,West,270,0.0,3.0,61,0.00,,---,0.00,VWS V13.01,2013-08-12 04:44:00,
2013-08-11 21:49:00,67.8,54.3,29.83,West,270,0.0,3.0,62,0.00,,---,0.00,VWS V13.01,2013-08-12 04:49:00,
2013-08-11 21:54:00,67.8,54.3,29.83,West,270,0.0,3.0,62,0.00,,---,0.00,VWS V13.01,2013-08-12 04:54:00,
2013-08-11 21:59:00,67.6,54.1,29.83,West,270,0.0,3.0,62,0.00,,---,0.00,VWS V13.01,2013-08-12 04:59:00,
2013-08-11 22:04:00,67.4,53.9,29.83,West,270,0.0,0.0,62,0.00,,---,0.00,VWS V13.01,2013-08-12 05:04:00,
2013-08-11 22:09:00,67.3,54.3,29.83,West,270,0.0,0.0,63,0.00,,---,0.00,VWS V13.01,2013-08-12 05:09:00,
2013-08-11 22:14:00,67.1,54.1,29.83,West,270,0.0,0.0,63,0.00,,---,0.00,VWS V13.01,2013-08-12 05:14:00,
2013-08-11 22:19:00,67.1,54.1,29.83,West,270,0.0,0.0,63,0.00,,---,0.00,VWS V13.01,2013-08-12 05:19:00,
2013-08-11 22:24:00,66.9,53.9,29.83,West,270,0.0,0.0,63,0.00,,---,0.00,VWS V13.01,2013-08-12 05:24:00,
2013-08-11 22:29:00,66.6,54.1,29.83,West,270,0.0,0.0,64,0.00,,---,0.00,VWS V13.01,2013-08-12 05:29:00,
2013-08-11 22:34:00,66.3,54.2,29.83,West,270,0.0,0.0,65,0.00,,---,0.00,VWS V13.01,2013-08-12 05:34:00,
2013-08-11 22:39:00,66.1,54.4,29.83,West,270,0.0,0.0,66,0.00,,---,0.00,VWS V13.01,2013-08-12 05:39:00,
2013-08-11 22:44:00,66.0,54.3,29.83,West,270,0.0,0.0,66,0.00,,---,0.00,VWS V13.01,2013-08-12 05:44:00,
2013-08-11 22:49:00,65.8,54.5,29.83,West,270,0.0,0.0,67,0.00,,---,0.00,VWS V13.01,2013-08-12 05:49:00,
2013-08-11 22:54:00,65.5,54.3,29.83,West,270,0.0,0.0,67,0.00,,---,0.00,VWS V13.01,2013-08-12 05:54:00,
2013-08-11 22:59:00,65.5,54.7,29.83,West,270,0.0,0.0,68,0.00,,---,0.00,VWS V13.01,2013-08-12 05:59:00,
2013-08-11 23:04:00,65.3,54.5,29.84,West,270,0.0,0.0,68,0.00,,---,0.00,VWS V13.01,2013-08-12 06:04:00,
2013-08-11 23:09:00,65.2,54.8,29.84,West,270,0.0,0.0,69,0.00,,---,0.00,VWS V13.01,2013-08-12 06:09:00,
2013-08-11 23:14:00,65.2,54.4,29.84,West,270,0.0,0.0,68,0.00,,---,0.00,VWS V13.01,2013-08-12 06:14:00,
2013-08-11 23:19:00,65.0,54.6,29.83,West,270,0.0,0.0,69,0.00,,---,0.00,VWS V13.01,2013-08-12 06:19:00,
2013-08-11 23:24:00,64.7,54.7,29.83,West,270,0.0,0.0,70,0.00,,---,0.00,VWS V13.01,2013-08-12 06:24:00,
2013-08-11 23:29:00,64.3,54.3,29.83,West,270,0.0,0.0,70,0.00,,---,0.00,VWS V13.01,2013-08-12 06:29:00,
2013-08-11 23:34:00,64.0,54.4,29.83,West,270,0.0,0.0,71,0.00,,---,0.00,VWS V13.01,2013-08-12 06:34:00,
2013-08-11 23:39:00,63.9,53.9,29.83,West,270,0.0,0.0,70,0.00,,---,0.00,VWS V13.01,2013-08-12 06:39:00,
2013-08-11 23:44:00,63.7,53.7,29.83,West,270,0.0,0.0,70,0.00,,---,0.00,VWS V13.01,2013-08-12 06:44:00,
2013-08-11 23:49:00,63.5,53.2,29.83,West,270,0.0,0.0,69,0.00,,---,0.00,VWS V13.01,2013-08-12 06:49:00,
2013-08-11 23:54:00,63.4,53.1,29.83,West,270,0.0,0.0,69,0.00,,---,0.00,VWS V13.01,2013-08-12 06:54:00,
2013-08-11 23:59:00,63.2,52.9,29.83,West,270,0.0,0.0,69,0.00,,---,0.00,VWS V13.01,2013-08-12 06:59:00,